contact:dominique.lefevre@mio.osupytheas.fr, maurice.libes@osupytheas.fr, didier.mallarino@osupytheas.fr
Project:EMSO http://www.emso-fr.org/EMSO-France
Depth: 2436.0 m
Title:EMSO Ligure Ouest : Data MII capteur CSTAR
DateTime,Latitude,Longitude,Instrument_Serial,Reference_Counts,Signal_Counts,Corrected_Signal_raw_counts,Calculated_Beam_c_inverse_meters,Internal_thermistor_counts
DateTime,Latitude,Longitude,Instrument_Serial,Reference_Counts,Signal_Counts,Corrected_Signal_raw_counts,Calculated_Beam_c_inverse_meters,Internal_thermistor_counts
2023-04-11T00:03:01,42.805,6.029,CST-1368DR,4325,4672,11471,01.234,551
2023-04-11T00:06:02,42.805,6.029,CST-1368DR,4325,4664,11452,01.241,551
2023-04-11T00:09:04,42.805,6.029,CST-1368DR,4326,4670,11464,01.236,551
2023-04-11T00:12:05,42.805,6.029,CST-1368DR,4325,4672,11471,01.234,551
2023-04-11T00:15:07,42.805,6.029,CST-1368DR,4326,4671,11466,01.236,551
2023-04-11T00:18:09,42.805,6.029,CST-1368DR,4326,4669,11460,01.238,551
2023-04-11T00:21:10,42.805,6.029,CST-1368DR,4326,4669,11460,01.238,551
2023-04-11T00:24:12,42.805,6.029,CST-1368DR,4326,4672,11468,01.235,551
2023-04-11T00:27:13,42.805,6.029,CST-1368DR,4326,4672,11468,01.235,551
2023-04-11T00:30:15,42.805,6.029,CST-1368DR,4326,4672,11469,01.235,551
2023-04-11T00:33:16,42.805,6.029,CST-1368DR,4326,4670,11463,01.237,551
2023-04-11T00:36:18,42.805,6.029,CST-1368DR,4326,4669,11461,01.237,551
2023-04-11T00:39:20,42.805,6.029,CST-1368DR,4326,4672,11468,01.235,551
2023-04-11T00:42:21,42.805,6.029,CST-1368DR,4326,4672,11468,01.235,551
2023-04-11T00:45:23,42.805,6.029,CST-1368DR,4326,4668,11460,01.238,551
2023-04-11T00:48:24,42.805,6.029,CST-1368DR,4326,4669,11461,01.237,551
2023-04-11T00:51:26,42.805,6.029,CST-1368DR,4326,4662,11444,01.243,551
2023-04-11T00:54:27,42.805,6.029,CST-1368DR,4326,4673,11470,01.234,551
2023-04-11T00:57:29,42.805,6.029,CST-1368DR,4326,4664,11450,01.241,551
2023-04-11T01:00:31,42.805,6.029,CST-1368DR,4326,4670,11463,01.237,551
2023-04-11T01:03:32,42.805,6.029,CST-1368DR,4326,4666,11453,01.240,551
2023-04-11T01:06:34,42.805,6.029,CST-1368DR,4326,4665,11452,01.241,551
2023-04-11T01:09:35,42.805,6.029,CST-1368DR,4326,4663,11447,01.242,551
2023-04-11T01:12:37,42.805,6.029,CST-1368DR,4326,4672,11468,01.235,551
2023-04-11T01:15:39,42.805,6.029,CST-1368DR,4326,4668,11460,01.238,551
2023-04-11T01:18:40,42.805,6.029,CST-1368DR,4326,4666,11453,01.240,551
2023-04-11T01:21:42,42.805,6.029,CST-1368DR,4326,4664,11449,01.242,551
2023-04-11T01:24:43,42.805,6.029,CST-1368DR,4325,4671,11468,01.235,551
2023-04-11T01:27:45,42.805,6.029,CST-1368DR,4326,4662,11443,01.244,551
2023-04-11T01:30:46,42.805,6.029,CST-1368DR,4325,4660,11441,01.244,551
2023-04-11T01:33:48,42.805,6.029,CST-1368DR,4325,4656,11433,01.247,551
2023-04-11T01:36:50,42.805,6.029,CST-1368DR,4326,4703,11544,01.209,551
2023-04-11T01:39:51,42.805,6.029,CST-1368DR,4325,4582,11251,01.311,551
2023-04-11T01:42:53,42.805,6.029,CST-1368DR,4325,4589,11266,01.306,551
2023-04-11T01:45:54,42.805,6.029,CST-1368DR,4325,4575,11233,01.318,551
2023-04-11T01:48:56,42.805,6.029,CST-1368DR,4326,4703,11545,01.208,551
2023-04-11T01:51:57,42.805,6.029,CST-1368DR,4326,4704,11546,01.208,551
2023-04-11T01:54:59,42.805,6.029,CST-1368DR,4326,4703,11544,01.209,551
2023-04-11T01:58:01,42.805,6.029,CST-1368DR,4326,4706,11552,01.206,551
2023-04-11T02:01:02,42.805,6.029,CST-1368DR,4326,4705,11549,01.207,551
2023-04-11T02:04:04,42.805,6.029,CST-1368DR,4326,4707,11555,01.205,551
2023-04-11T02:07:05,42.805,6.029,CST-1368DR,4326,4701,11541,01.210,551
2023-04-11T02:10:07,42.805,6.029,CST-1368DR,4326,4706,11552,01.206,552
2023-04-11T02:13:09,42.805,6.029,CST-1368DR,4326,4704,11547,01.207,551
2023-04-11T02:16:10,42.805,6.029,CST-1368DR,4326,4704,11546,01.208,551
2023-04-11T02:19:12,42.805,6.029,CST-1368DR,4326,4705,11549,01.207,551
2023-04-11T02:22:13,42.805,6.029,CST-1368DR,4326,4705,11549,01.207,551
2023-04-11T02:25:15,42.805,6.029,CST-1368DR,4326,4703,11545,01.208,551
2023-04-11T02:28:16,42.805,6.029,CST-1368DR,4326,4706,11552,01.206,551
2023-04-11T02:31:18,42.805,6.029,CST-1368DR,4326,4704,11546,01.208,551
2023-04-11T02:34:20,42.805,6.029,CST-1368DR,4326,4704,11548,01.207,551
2023-04-11T02:37:21,42.805,6.029,CST-1368DR,4326,4705,11549,01.207,551
2023-04-11T02:40:23,42.805,6.029,CST-1368DR,4326,4706,11553,01.205,551
2023-04-11T02:43:24,42.805,6.029,CST-1368DR,4326,4706,11551,01.206,551
2023-04-11T02:46:26,42.805,6.029,CST-1368DR,4326,4706,11551,01.206,551
2023-04-11T02:49:27,42.805,6.029,CST-1368DR,4326,4703,11545,01.208,551
2023-04-11T02:52:29,42.805,6.029,CST-1368DR,4326,4704,11546,01.208,552
2023-04-11T02:55:31,42.805,6.029,CST-1368DR,4326,4704,11548,01.207,551
2023-04-11T02:58:32,42.805,6.029,CST-1368DR,4326,4706,11552,01.206,551
2023-04-11T03:01:34,42.805,6.029,CST-1368DR,4326,4705,11550,01.206,551
2023-04-11T03:04:35,42.805,6.029,CST-1368DR,4326,4706,11552,01.206,551
2023-04-11T03:07:37,42.805,6.029,CST-1368DR,4326,4704,11548,01.207,551
2023-04-11T03:10:39,42.805,6.029,CST-1368DR,4326,4699,11534,01.212,551
2023-04-11T03:13:40,42.805,6.029,CST-1368DR,4326,4705,11549,01.207,551
2023-04-11T03:16:42,42.805,6.029,CST-1368DR,4326,4705,11549,01.207,551
2023-04-11T03:19:43,42.805,6.029,CST-1368DR,4326,4700,11536,01.211,551
2023-04-11T03:22:45,42.805,6.029,CST-1368DR,4326,4706,11551,01.206,551
2023-04-11T03:25:46,42.805,6.029,CST-1368DR,4326,4702,11543,01.209,551
2023-04-11T03:28:48,42.805,6.029,CST-1368DR,4326,4702,11543,01.209,551
2023-04-11T03:31:50,42.805,6.029,CST-1368DR,4326,4703,11544,01.209,551
2023-04-11T03:34:51,42.805,6.029,CST-1368DR,4326,4706,11552,01.206,551
2023-04-11T03:37:53,42.805,6.029,CST-1368DR,4326,4703,11544,01.209,551
2023-04-11T03:40:54,42.805,6.029,CST-1368DR,4326,4706,11552,01.206,551
2023-04-11T03:43:56,42.805,6.029,CST-1368DR,4326,4708,11557,01.204,551
2023-04-11T03:46:57,42.805,6.029,CST-1368DR,4326,4700,11537,01.211,551
2023-04-11T03:49:59,42.805,6.029,CST-1368DR,4326,4705,11549,01.207,551
2023-04-11T03:53:01,42.805,6.029,CST-1368DR,4326,4708,11557,01.204,551
2023-04-11T03:56:02,42.805,6.029,CST-1368DR,4326,4704,11546,01.208,551
2023-04-11T03:59:04,42.805,6.029,CST-1368DR,4326,4708,11557,01.204,551
2023-04-11T04:02:05,42.805,6.029,CST-1368DR,4326,4705,11550,01.206,551
2023-04-11T04:05:07,42.805,6.029,CST-1368DR,4326,4708,11557,01.204,551
2023-04-11T04:08:09,42.805,6.029,CST-1368DR,4326,4712,11568,01.200,551
2023-04-11T04:11:10,42.805,6.029,CST-1368DR,4326,4706,11552,01.206,551
2023-04-11T04:14:12,42.805,6.029,CST-1368DR,4326,4707,11554,01.205,551
2023-04-11T04:17:13,42.805,6.029,CST-1368DR,4326,4706,11552,01.206,551
2023-04-11T04:20:15,42.805,6.029,CST-1368DR,4326,4702,11542,01.209,551
2023-04-11T04:23:16,42.805,6.029,CST-1368DR,4326,4704,11547,01.207,551
2023-04-11T04:26:18,42.805,6.029,CST-1368DR,4326,4708,11557,01.204,551
2023-04-11T04:29:20,42.805,6.029,CST-1368DR,4326,4709,11559,01.203,551
2023-04-11T04:32:21,42.805,6.029,CST-1368DR,4326,4706,11553,01.205,551
2023-04-11T04:35:23,42.805,6.029,CST-1368DR,4326,4705,11549,01.207,552
2023-04-11T04:38:24,42.805,6.029,CST-1368DR,4326,4707,11555,01.205,551
2023-04-11T04:41:26,42.805,6.029,CST-1368DR,4326,4706,11553,01.205,551
2023-04-11T04:44:27,42.805,6.029,CST-1368DR,4326,4706,11552,01.206,551
2023-04-11T04:47:29,42.805,6.029,CST-1368DR,4326,4700,11537,01.211,551
2023-04-11T04:50:31,42.805,6.029,CST-1368DR,4326,4706,11552,01.206,551
2023-04-11T04:53:32,42.805,6.029,CST-1368DR,4326,4704,11547,01.207,551
2023-04-11T04:56:34,42.805,6.029,CST-1368DR,4326,4705,11550,01.206,551
2023-04-11T04:59:35,42.805,6.029,CST-1368DR,4326,4700,11537,01.211,551
2023-04-11T05:02:37,42.805,6.029,CST-1368DR,4326,4698,11532,01.213,551
2023-04-11T05:05:39,42.805,6.029,CST-1368DR,4326,4707,11555,01.205,551
2023-04-11T05:08:40,42.805,6.029,CST-1368DR,4326,4696,11526,01.215,552
2023-04-11T05:11:42,42.805,6.029,CST-1368DR,4326,4698,11531,01.213,551
2023-04-11T05:14:43,42.805,6.029,CST-1368DR,4326,4702,11542,01.209,551
2023-04-11T05:17:45,42.805,6.029,CST-1368DR,4326,4700,11537,01.211,551
2023-04-11T05:20:46,42.805,6.029,CST-1368DR,4326,4706,11553,01.205,551
2023-04-11T05:23:48,42.805,6.029,CST-1368DR,4326,4703,11544,01.209,551
2023-04-11T05:26:50,42.805,6.029,CST-1368DR,4326,4698,11533,01.212,551
2023-04-11T05:29:51,42.805,6.029,CST-1368DR,4326,4699,11535,01.212,551
2023-04-11T05:32:53,42.805,6.029,CST-1368DR,4326,4699,11534,01.212,551
2023-04-11T05:35:54,42.805,6.029,CST-1368DR,4326,4710,11561,01.203,551
2023-04-11T05:38:56,42.805,6.029,CST-1368DR,4326,4704,11547,01.207,551
2023-04-11T05:41:57,42.805,6.029,CST-1368DR,4326,4700,11537,01.211,551
2023-04-11T05:44:59,42.805,6.029,CST-1368DR,4326,4708,11558,01.204,551
2023-04-11T05:48:01,42.805,6.029,CST-1368DR,4326,4699,11534,01.212,551
2023-04-11T05:51:02,42.805,6.029,CST-1368DR,4326,4706,11551,01.206,551
2023-04-11T05:54:04,42.805,6.029,CST-1368DR,4326,4703,11544,01.209,551
2023-04-11T05:57:05,42.805,6.029,CST-1368DR,4326,4707,11555,01.205,552
2023-04-11T06:00:07,42.805,6.029,CST-1368DR,4326,4705,11550,01.206,551
2023-04-11T06:03:09,42.805,6.029,CST-1368DR,4326,4706,11553,01.205,551
2023-04-11T06:06:10,42.805,6.029,CST-1368DR,4326,4705,11550,01.206,551
2023-04-11T06:09:12,42.805,6.029,CST-1368DR,4326,4708,11557,01.204,551
2023-04-11T06:12:13,42.805,6.029,CST-1368DR,4326,4706,11552,01.206,551
2023-04-11T06:15:15,42.805,6.029,CST-1368DR,4326,4704,11546,01.208,551
2023-04-11T06:18:16,42.805,6.029,CST-1368DR,4326,4704,11548,01.207,551
2023-04-11T06:21:18,42.805,6.029,CST-1368DR,4326,4704,11548,01.207,551
2023-04-11T06:24:20,42.805,6.029,CST-1368DR,4326,4706,11552,01.206,551
2023-04-11T06:27:21,42.805,6.029,CST-1368DR,4326,4702,11543,01.209,551
2023-04-11T06:30:23,42.805,6.029,CST-1368DR,4326,4700,11537,01.211,551
2023-04-11T06:33:24,42.805,6.029,CST-1368DR,4326,4700,11537,01.211,552
2023-04-11T06:36:26,42.805,6.029,CST-1368DR,4325,4691,11519,01.217,551
2023-04-11T06:39:27,42.805,6.029,CST-1368DR,4326,4703,11545,01.208,551
2023-04-11T06:42:29,42.805,6.029,CST-1368DR,4326,4707,11555,01.205,551
2023-04-11T06:45:31,42.805,6.029,CST-1368DR,4326,4707,11555,01.205,551
2023-04-11T06:48:32,42.805,6.029,CST-1368DR,4326,4709,11560,01.203,551
2023-04-11T06:51:34,42.805,6.029,CST-1368DR,4326,4710,11563,01.202,551
2023-04-11T06:54:35,42.805,6.029,CST-1368DR,4326,4703,11545,01.208,551
2023-04-11T06:57:37,42.805,6.029,CST-1368DR,4326,4703,11545,01.208,551
2023-04-11T07:00:39,42.805,6.029,CST-1368DR,4326,4705,11549,01.207,551
2023-04-11T07:03:40,42.805,6.029,CST-1368DR,4326,4712,11566,01.201,551
2023-04-11T07:06:42,42.805,6.029,CST-1368DR,4326,4706,11553,01.205,551
2023-04-11T07:09:43,42.805,6.029,CST-1368DR,4326,4713,11568,01.200,551
2023-04-11T07:12:45,42.805,6.029,CST-1368DR,4326,4710,11562,01.202,551
2023-04-11T07:15:46,42.805,6.029,CST-1368DR,4326,4709,11558,01.204,551
2023-04-11T07:18:48,42.805,6.029,CST-1368DR,4326,4706,11552,01.206,551
2023-04-11T07:21:50,42.805,6.029,CST-1368DR,4326,4707,11554,01.205,551
2023-04-11T07:24:51,42.805,6.029,CST-1368DR,4326,4706,11552,01.206,551
2023-04-11T07:27:53,42.805,6.029,CST-1368DR,4326,4707,11554,01.205,551
2023-04-11T07:30:54,42.805,6.029,CST-1368DR,4326,4709,11558,01.204,552
2023-04-11T07:33:56,42.805,6.029,CST-1368DR,4326,4714,11571,01.199,551
2023-04-11T07:36:57,42.805,6.029,CST-1368DR,4326,4709,11560,01.203,551
2023-04-11T07:39:59,42.805,6.029,CST-1368DR,4326,4715,11573,01.198,551
2023-04-11T07:43:01,42.805,6.029,CST-1368DR,4326,4714,11572,01.199,551
2023-04-11T07:46:02,42.805,6.029,CST-1368DR,4326,4707,11555,01.205,551
2023-04-11T07:49:04,42.805,6.029,CST-1368DR,4326,4707,11553,01.205,551
2023-04-11T07:52:05,42.805,6.029,CST-1368DR,4325,4710,11563,01.202,551
2023-04-11T07:55:07,42.805,6.029,CST-1368DR,4326,4707,11553,01.205,551
2023-04-11T07:58:08,42.805,6.029,CST-1368DR,4326,4715,11574,01.198,552
2023-04-11T08:01:10,42.805,6.029,CST-1368DR,4326,4715,11575,01.198,551
2023-04-11T08:04:12,42.805,6.029,CST-1368DR,4326,4712,11567,01.201,551
2023-04-11T08:07:13,42.805,6.029,CST-1368DR,4326,4717,11579,01.196,551
2023-04-11T08:10:15,42.805,6.029,CST-1368DR,4326,4711,11564,01.202,551
2023-04-11T08:13:16,42.805,6.029,CST-1368DR,4326,4709,11560,01.203,551
2023-04-11T08:16:18,42.805,6.029,CST-1368DR,4326,4712,11566,01.201,551
2023-04-11T08:19:20,42.805,6.029,CST-1368DR,4326,4711,11563,01.202,551
2023-04-11T08:22:21,42.805,6.029,CST-1368DR,4325,4698,11536,01.211,551
2023-04-11T08:25:23,42.805,6.029,CST-1368DR,4326,4706,11552,01.206,551
2023-04-11T08:28:24,42.805,6.029,CST-1368DR,4325,4710,11564,01.202,551
2023-04-11T08:31:26,42.805,6.029,CST-1368DR,4325,4707,11557,01.204,551
2023-04-11T08:34:27,42.805,6.029,CST-1368DR,4325,4706,11555,01.205,551
2023-04-11T08:37:29,42.805,6.029,CST-1368DR,4325,4707,11557,01.204,551
2023-04-11T08:40:31,42.805,6.029,CST-1368DR,4326,4709,11558,01.204,551
2023-04-11T08:43:32,42.805,6.029,CST-1368DR,4326,4708,11557,01.204,551
2023-04-11T08:46:34,42.805,6.029,CST-1368DR,4326,4709,11559,01.203,551
2023-04-11T08:49:35,42.805,6.029,CST-1368DR,4326,4709,11560,01.203,551
2023-04-11T08:52:37,42.805,6.029,CST-1368DR,4325,4715,11576,01.197,551
2023-04-11T08:55:38,42.805,6.029,CST-1368DR,4326,4709,11559,01.203,551
2023-04-11T08:58:40,42.805,6.029,CST-1368DR,4326,4711,11565,01.201,551
2023-04-11T09:01:42,42.805,6.029,CST-1368DR,4326,4708,11557,01.204,552
2023-04-11T09:04:43,42.805,6.029,CST-1368DR,4326,4711,11564,01.202,551
2023-04-11T09:07:45,42.805,6.029,CST-1368DR,4326,4716,11576,01.197,551
2023-04-11T09:10:46,42.805,6.029,CST-1368DR,4325,4710,11564,01.202,551
2023-04-11T09:13:48,42.805,6.029,CST-1368DR,4326,4711,11564,01.202,551
2023-04-11T09:16:49,42.805,6.029,CST-1368DR,4325,4707,11558,01.204,551
2023-04-11T09:19:51,42.805,6.029,CST-1368DR,4326,4713,11570,01.200,551
2023-04-11T09:22:53,42.805,6.029,CST-1368DR,4326,4716,11577,01.197,551
2023-04-11T09:25:54,42.805,6.029,CST-1368DR,4326,4715,11574,01.198,551
2023-04-11T09:28:56,42.805,6.029,CST-1368DR,4326,4715,11574,01.198,551
2023-04-11T09:31:57,42.805,6.029,CST-1368DR,4326,4711,11564,01.202,551
2023-04-11T09:34:59,42.805,6.029,CST-1368DR,4326,4708,11557,01.204,551
2023-04-11T09:38:01,42.805,6.029,CST-1368DR,4326,4709,11559,01.203,551
2023-04-11T09:41:02,42.805,6.029,CST-1368DR,4326,4716,11576,01.197,551
2023-04-11T09:44:04,42.805,6.029,CST-1368DR,4325,4713,11573,01.198,551
2023-04-11T09:47:05,42.805,6.029,CST-1368DR,4326,4711,11565,01.201,551
2023-04-11T09:50:07,42.805,6.029,CST-1368DR,4326,4715,11574,01.198,551
2023-04-11T09:53:08,42.805,6.029,CST-1368DR,4326,4707,11555,01.205,551
2023-04-11T09:56:10,42.805,6.029,CST-1368DR,4326,4712,11566,01.201,551
2023-04-11T09:59:12,42.805,6.029,CST-1368DR,4326,4716,11576,01.197,551
2023-04-11T10:02:13,42.805,6.029,CST-1368DR,4325,4715,11577,01.197,551
2023-04-11T10:05:15,42.805,6.029,CST-1368DR,4325,4718,11584,01.195,551
2023-04-11T10:08:16,42.805,6.029,CST-1368DR,4326,4711,11564,01.202,551
2023-04-11T10:11:18,42.805,6.029,CST-1368DR,4325,4715,11577,01.197,551
2023-04-11T10:14:19,42.805,6.029,CST-1368DR,4326,4715,11574,01.198,551
2023-04-11T10:17:21,42.805,6.029,CST-1368DR,4325,4714,11574,01.198,551
2023-04-11T10:20:23,42.805,6.029,CST-1368DR,4326,4709,11560,01.203,551
2023-04-11T10:23:24,42.805,6.029,CST-1368DR,4326,4710,11561,01.203,551
2023-04-11T10:26:26,42.805,6.029,CST-1368DR,4326,4709,11559,01.203,551
2023-04-11T10:29:27,42.805,6.029,CST-1368DR,4325,4706,11555,01.205,551
2023-04-11T10:32:29,42.805,6.029,CST-1368DR,4326,4713,11570,01.200,551
2023-04-11T10:35:31,42.805,6.029,CST-1368DR,4326,4715,11575,01.198,551
2023-04-11T10:38:32,42.805,6.029,CST-1368DR,4326,4715,11574,01.198,551
2023-04-11T10:41:34,42.805,6.029,CST-1368DR,4326,4712,11568,01.200,551
2023-04-11T10:44:35,42.805,6.029,CST-1368DR,4325,4714,11574,01.198,551
2023-04-11T10:47:37,42.805,6.029,CST-1368DR,4326,4708,11558,01.204,551
2023-04-11T10:50:38,42.805,6.029,CST-1368DR,4325,4713,11571,01.199,551
2023-04-11T10:53:40,42.805,6.029,CST-1368DR,4326,4711,11565,01.201,551
2023-04-11T10:56:42,42.805,6.029,CST-1368DR,4325,4710,11565,01.201,551
2023-04-11T10:59:43,42.805,6.029,CST-1368DR,4326,4714,11572,01.199,551
2023-04-11T11:02:45,42.805,6.029,CST-1368DR,4325,4709,11563,01.202,551
2023-04-11T11:05:46,42.805,6.029,CST-1368DR,4325,4708,11560,01.203,551
2023-04-11T11:08:48,42.805,6.029,CST-1368DR,4325,4709,11561,01.203,551
2023-04-11T11:11:49,42.805,6.029,CST-1368DR,4325,4709,11562,01.202,551
2023-04-11T11:14:51,42.805,6.029,CST-1368DR,4325,4708,11560,01.203,551
2023-04-11T11:17:53,42.805,6.029,CST-1368DR,4325,4699,11536,01.211,551
2023-04-11T11:20:54,42.805,6.029,CST-1368DR,4325,4710,11564,01.202,551
2023-04-11T11:23:56,42.805,6.029,CST-1368DR,4325,4709,11562,01.202,551
2023-04-11T11:26:57,42.805,6.029,CST-1368DR,4325,4710,11565,01.201,551
2023-04-11T11:29:59,42.805,6.029,CST-1368DR,4325,4716,11578,01.197,551
2023-04-11T11:33:01,42.805,6.029,CST-1368DR,4325,4712,11569,01.200,551
2023-04-11T11:36:02,42.805,6.029,CST-1368DR,4325,4705,11551,01.206,551
2023-04-11T11:39:04,42.805,6.029,CST-1368DR,4325,4707,11558,01.204,551
2023-04-11T11:42:05,42.805,6.029,CST-1368DR,4325,4710,11565,01.201,551
2023-04-11T11:45:07,42.805,6.029,CST-1368DR,4325,4710,11565,01.201,551
2023-04-11T11:48:08,42.805,6.029,CST-1368DR,4325,4710,11565,01.201,551
2023-04-11T11:51:10,42.805,6.029,CST-1368DR,4325,4711,11566,01.201,551
2023-04-11T11:54:12,42.805,6.029,CST-1368DR,4325,4711,11566,01.201,551
2023-04-11T11:57:13,42.805,6.029,CST-1368DR,4325,4709,11563,01.202,551
2023-04-11T12:00:15,42.805,6.029,CST-1368DR,4325,4709,11561,01.203,551
2023-04-11T12:03:16,42.805,6.029,CST-1368DR,4325,4709,11562,01.202,551
2023-04-11T12:06:18,42.805,6.029,CST-1368DR,4325,4706,11555,01.205,551
2023-04-11T12:09:19,42.805,6.029,CST-1368DR,4325,4707,11558,01.204,551
2023-04-11T12:12:21,42.805,6.029,CST-1368DR,4325,4707,11558,01.204,551
2023-04-11T12:15:23,42.805,6.029,CST-1368DR,4325,4707,11556,01.204,551
2023-04-11T12:18:24,42.805,6.029,CST-1368DR,4325,4709,11562,01.202,551
2023-04-11T12:21:26,42.805,6.029,CST-1368DR,4325,4707,11556,01.204,551
2023-04-11T12:24:27,42.805,6.029,CST-1368DR,4325,4706,11555,01.205,551
2023-04-11T12:27:29,42.805,6.029,CST-1368DR,4325,4707,11557,01.204,551
2023-04-11T12:30:30,42.805,6.029,CST-1368DR,4325,4683,11498,01.224,551
2023-04-11T12:33:32,42.805,6.029,CST-1368DR,4325,4704,11550,01.206,551
2023-04-11T12:36:34,42.805,6.029,CST-1368DR,4325,4705,11552,01.206,551
2023-04-11T12:39:35,42.805,6.029,CST-1368DR,4325,4705,11552,01.206,551
2023-04-11T12:42:37,42.805,6.029,CST-1368DR,4325,4709,11562,01.202,551
2023-04-11T12:45:38,42.805,6.029,CST-1368DR,4325,4710,11565,01.201,551
2023-04-11T12:48:40,42.805,6.029,CST-1368DR,4325,4707,11556,01.204,551
2023-04-11T12:51:42,42.805,6.029,CST-1368DR,4325,4712,11570,01.200,551
2023-04-11T12:54:43,42.805,6.029,CST-1368DR,4325,4710,11565,01.201,551
2023-04-11T12:57:45,42.805,6.029,CST-1368DR,4325,4712,11568,01.200,551
2023-04-11T13:00:46,42.805,6.029,CST-1368DR,4325,4711,11567,01.201,551
2023-04-11T13:03:48,42.805,6.029,CST-1368DR,4325,4707,11556,01.204,551
2023-04-11T13:06:49,42.805,6.029,CST-1368DR,4325,4707,11557,01.204,551
2023-04-11T13:09:51,42.805,6.029,CST-1368DR,4325,4708,11560,01.203,551
2023-04-11T13:12:53,42.805,6.029,CST-1368DR,4326,4759,11683,01.161,551
2023-04-11T13:15:54,42.805,6.029,CST-1368DR,4326,4764,11694,01.157,551
2023-04-11T13:18:56,42.805,6.029,CST-1368DR,4326,4763,11691,01.158,551
2023-04-11T13:21:57,42.805,6.029,CST-1368DR,4326,4765,11697,01.156,551
2023-04-11T13:24:59,42.805,6.029,CST-1368DR,4326,4764,11693,01.157,551
2023-04-11T13:28:00,42.805,6.029,CST-1368DR,4326,4764,11695,01.157,551
2023-04-11T13:31:02,42.805,6.029,CST-1368DR,4326,4763,11693,01.157,551
2023-04-11T13:34:04,42.805,6.029,CST-1368DR,4326,4764,11695,01.157,551
2023-04-11T13:37:05,42.805,6.029,CST-1368DR,4326,4763,11693,01.157,551
2023-04-11T13:40:07,42.805,6.029,CST-1368DR,4326,4764,11695,01.157,551
2023-04-11T13:43:08,42.805,6.029,CST-1368DR,4326,4763,11691,01.158,551
2023-04-11T13:46:10,42.805,6.029,CST-1368DR,4326,4760,11685,01.160,551
2023-04-11T13:49:12,42.805,6.029,CST-1368DR,4326,4765,11696,01.156,551
2023-04-11T13:52:13,42.805,6.029,CST-1368DR,4326,4764,11694,01.157,551
2023-04-11T13:55:15,42.805,6.029,CST-1368DR,4326,4764,11693,01.157,551
2023-04-11T13:58:16,42.805,6.029,CST-1368DR,4326,4762,11690,01.158,551
2023-04-11T14:01:18,42.805,6.029,CST-1368DR,4326,4764,11694,01.157,551
2023-04-11T14:04:19,42.805,6.029,CST-1368DR,4326,4764,11693,01.157,551
2023-04-11T14:07:21,42.805,6.029,CST-1368DR,4326,4763,11692,01.158,551
2023-04-11T14:10:23,42.805,6.029,CST-1368DR,4326,4763,11693,01.157,551
2023-04-11T14:13:24,42.805,6.029,CST-1368DR,4326,4766,11698,01.156,551
2023-04-11T14:16:26,42.805,6.029,CST-1368DR,4326,4763,11692,01.158,551
2023-04-11T14:19:27,42.805,6.029,CST-1368DR,4326,4763,11691,01.158,551
2023-04-11T14:22:29,42.805,6.029,CST-1368DR,4326,4760,11684,01.160,551
2023-04-11T14:25:31,42.805,6.029,CST-1368DR,4326,4764,11695,01.157,551
2023-04-11T14:28:32,42.805,6.029,CST-1368DR,4326,4764,11695,01.157,551
2023-04-11T14:31:34,42.805,6.029,CST-1368DR,4326,4760,11685,01.160,551
2023-04-11T14:34:35,42.805,6.029,CST-1368DR,4326,4764,11695,01.157,551
2023-04-11T14:37:37,42.805,6.029,CST-1368DR,4326,4764,11694,01.157,551
2023-04-11T14:40:38,42.805,6.029,CST-1368DR,4326,4756,11674,01.164,551
2023-04-11T14:43:40,42.805,6.029,CST-1368DR,4326,4757,11677,01.163,551
2023-04-11T14:46:42,42.805,6.029,CST-1368DR,4326,4757,11676,01.163,551
2023-04-11T14:49:43,42.805,6.029,CST-1368DR,4326,4757,11677,01.163,551
2023-04-11T14:52:45,42.805,6.029,CST-1368DR,4326,4756,11676,01.163,552
2023-04-11T14:55:46,42.805,6.029,CST-1368DR,4326,4759,11682,01.161,551
2023-04-11T14:58:48,42.805,6.029,CST-1368DR,4326,4757,11677,01.163,551
2023-04-11T15:01:49,42.805,6.029,CST-1368DR,4326,4757,11678,01.162,551
2023-04-11T15:04:51,42.805,6.029,CST-1368DR,4326,4757,11678,01.162,551
2023-04-11T15:07:53,42.805,6.029,CST-1368DR,4326,4758,11679,01.162,551
2023-04-11T15:10:54,42.805,6.029,CST-1368DR,4326,4756,11676,01.163,551
2023-04-11T15:13:56,42.805,6.029,CST-1368DR,4326,4749,11657,01.170,551
2023-04-11T15:16:57,42.805,6.029,CST-1368DR,4326,4761,11687,01.159,551
2023-04-11T15:19:59,42.805,6.029,CST-1368DR,4326,4755,11673,01.164,551
2023-04-11T15:23:00,42.805,6.029,CST-1368DR,4326,4756,11674,01.164,551
2023-04-11T15:26:02,42.805,6.029,CST-1368DR,4326,4758,11680,01.162,551
2023-04-11T15:29:04,42.805,6.029,CST-1368DR,4326,4758,11680,01.162,551
2023-04-11T15:32:05,42.805,6.029,CST-1368DR,4326,4754,11669,01.165,551
2023-04-11T15:35:07,42.805,6.029,CST-1368DR,4326,4757,11677,01.163,551
2023-04-11T15:38:08,42.805,6.029,CST-1368DR,4326,4757,11678,01.162,551
2023-04-11T15:41:10,42.805,6.029,CST-1368DR,4326,4754,11669,01.165,551
2023-04-11T15:44:12,42.805,6.029,CST-1368DR,4326,4754,11671,01.165,551
2023-04-11T15:47:13,42.805,6.029,CST-1368DR,4326,4757,11677,01.163,551
2023-04-11T15:50:15,42.805,6.029,CST-1368DR,4326,4757,11677,01.163,551
2023-04-11T15:53:16,42.805,6.029,CST-1368DR,4326,4756,11674,01.164,551
2023-04-11T15:56:18,42.805,6.029,CST-1368DR,4326,4756,11676,01.163,551
2023-04-11T15:59:19,42.805,6.029,CST-1368DR,4326,4755,11673,01.164,551
2023-04-11T16:02:21,42.805,6.029,CST-1368DR,4326,4749,11658,01.169,552
2023-04-11T16:05:23,42.805,6.029,CST-1368DR,4326,4738,11631,01.178,551
2023-04-11T16:08:24,42.805,6.029,CST-1368DR,4326,4743,11642,01.175,551
2023-04-11T16:11:26,42.805,6.029,CST-1368DR,4326,4741,11638,01.176,551
2023-04-11T16:14:27,42.805,6.029,CST-1368DR,4326,4735,11623,01.181,551
2023-04-11T16:17:29,42.805,6.029,CST-1368DR,4326,4739,11632,01.178,551
2023-04-11T16:20:31,42.805,6.029,CST-1368DR,4326,4740,11636,01.177,551
2023-04-11T16:23:32,42.805,6.029,CST-1368DR,4326,4738,11631,01.178,551
2023-04-11T16:26:34,42.805,6.029,CST-1368DR,4326,4735,11623,01.181,551
2023-04-11T16:29:35,42.805,6.029,CST-1368DR,4325,4717,11582,01.195,551
2023-04-11T16:32:37,42.805,6.029,CST-1368DR,4325,4716,11578,01.197,551
2023-04-11T16:35:39,42.805,6.029,CST-1368DR,4325,4708,11560,01.203,551
2023-04-11T16:38:40,42.805,6.029,CST-1368DR,4325,4708,11559,01.203,552